OBJECT_NAME,OBJECT_ID,EPOCH,MEAN_MOTION,ECCENTRICITY,INCLINATION,RA_OF_ASC_NODE,ARG_OF_PERICENTER,MEAN_ANOMALY,EPHEMERIS_TYPE,CLASSIFICATION_TYPE,NORAD_CAT_ID,ELEMENT_SET_NO,REV_AT_EPOCH,BSTAR,MEAN_MOTION_DOT,MEAN_MOTION_DDOT CALSPHERE 1,1964-063C,2026-09-12T07:48:55.283040,13.76701804,.00269573,90.2175,73.7885,32.5298,86.0285,0,U,900,999,8341,.42671834E-3,.429E-5,0 CALSPHERE 2,1964-063E,2026-09-12T06:03:28.459872,13.52906226,.00178845,90.2289,77.8433,340.5626,194.1066,0,U,902,999,86803,.35173528E-4,.32E-6,0 LCS 1,1965-034C,2026-09-12T07:34:25.546944,9.89310660,.00112491,32.1457,330.1568,70.9514,289.2201,0,U,1361,999,21851,.76739667E-3,.14E-6,0 TEMPSAT 1,1965-065E,2026-09-12T08:09:47.238912,13.33598263,.00700266,90.0055,212.6096,5.5959,147.5915,0,U,1512,999,97166,.34304888E-4,.26E-6,0 CALSPHERE 4A,1965-065H,2026-09-12T02:31:02.800128,13.36290660,.00683791,89.8909,121.6135,217.3398,307.4469,0,U,1520,999,97431,.1359688E-3,.8E-6,0 OPS 5712 (P/L 160),1967-053A,2026-09-12T06:31:17.772672,14.78689347,.00041407,69.9169,184.6731,273.1675,86.9000,0,U,2826,999,7910,.67157077E-3,.4858E-4,0 OPS 5712 (P/L 153),1967-053H,2026-09-12T03:04:40.416384,13.96838863,.0004533,69.9728,288.9538,77.2983,282.8630,0,U,2874,999,1893,.34363254E-4,-.5E-7,0 RIGIDSPHERE 2 (LCS 4),1971-067E,2026-09-12T05:57:57.510720,14.37954016,.00577361,87.6218,314.6468,305.1606,54.4192,0,U,5398,999,88639,.1270287E-3,.408E-5,0 COSMOS 2493 (SKRL-756 1),2013-078A,2026-09-12T06:28:30.570528,15.02545759,.00117732,82.4159,175.9746,315.6498,44.3783,0,U,39490,999,69103,.17869406E-3,.2404E-4,0 COSMOS 2494 (SKRL-756 2),2013-078B,2026-09-12T05:49:12.868320,15.05314097,.00144614,82.4156,165.0261,269.6350,90.3220,0,U,39491,999,69190,.15963886E-3,.2316E-4,0